Year,Month,Day,Hour,Minute,Value (Times are PST for temperature in C)
2019,07,04,00,00,13.10
2019,07,04,00,01,13.10
2019,07,04,00,02,13.00
2019,07,04,00,03,12.90
2019,07,04,00,04,13.00
2019,07,04,00,05,13.00
2019,07,04,00,06,13.00
2019,07,04,00,07,12.90
2019,07,04,00,08,12.80
2019,07,04,00,09,12.90
2019,07,04,00,10,12.90
2019,07,04,00,11,12.90
2019,07,04,00,12,12.90
2019,07,04,00,13,12.90
2019,07,04,00,14,13.00
2019,07,04,00,15,13.00
2019,07,04,00,16,13.00
2019,07,04,00,17,13.00
2019,07,04,00,18,12.90
2019,07,04,00,19,12.90
2019,07,04,00,20,12.90
2019,07,04,00,21,12.90
2019,07,04,00,22,13.00
2019,07,04,00,23,13.10
2019,07,04,00,24,13.00
2019,07,04,00,25,13.00
2019,07,04,00,26,12.90
2019,07,04,00,27,13.00
2019,07,04,00,28,13.00
2019,07,04,00,29,13.00
2019,07,04,00,30,13.00
2019,07,04,00,31,13.00
2019,07,04,00,32,12.90
2019,07,04,00,33,13.00
2019,07,04,00,34,13.00
2019,07,04,00,35,13.00
2019,07,04,00,36,13.00
2019,07,04,00,37,13.00
2019,07,04,00,38,12.90
2019,07,04,00,39,12.90
2019,07,04,00,40,12.90
2019,07,04,00,41,12.90
2019,07,04,00,42,12.90
2019,07,04,00,43,12.90
2019,07,04,00,44,12.90
2019,07,04,00,45,12.90
2019,07,04,00,46,13.00
2019,07,04,00,47,13.00
2019,07,04,00,48,12.90
2019,07,04,00,49,12.90
2019,07,04,00,50,13.00
2019,07,04,00,51,13.00
2019,07,04,00,52,13.00
2019,07,04,00,53,12.90
2019,07,04,00,54,12.90
2019,07,04,00,55,12.90
2019,07,04,00,56,12.90
2019,07,04,00,57,12.90
2019,07,04,00,58,12.90
2019,07,04,00,59,12.80
2019,07,04,01,00,12.80
2019,07,04,01,01,12.80
2019,07,04,01,02,12.90
2019,07,04,01,03,12.80
2019,07,04,01,04,12.80
2019,07,04,01,05,12.80
2019,07,04,01,06,12.80
2019,07,04,01,07,12.80
2019,07,04,01,08,12.80
2019,07,04,01,09,12.80
2019,07,04,01,10,12.80
2019,07,04,01,11,12.70
2019,07,04,01,12,12.70
2019,07,04,01,13,12.70
2019,07,04,01,14,12.70
2019,07,04,01,15,12.80
2019,07,04,01,16,12.80
2019,07,04,01,17,12.70
2019,07,04,01,18,12.70
2019,07,04,01,19,12.70
2019,07,04,01,20,12.70
2019,07,04,01,21,12.70
2019,07,04,01,22,12.60
2019,07,04,01,23,12.70
2019,07,04,01,24,12.80
2019,07,04,01,25,12.80
2019,07,04,01,26,12.80
2019,07,04,01,27,12.80
2019,07,04,01,28,12.80
2019,07,04,01,29,12.70
2019,07,04,01,30,12.70
2019,07,04,01,31,12.70
2019,07,04,01,32,12.70
2019,07,04,01,33,12.70
2019,07,04,01,34,12.70
2019,07,04,01,35,12.70
2019,07,04,01,36,12.70
2019,07,04,01,37,12.70
2019,07,04,01,38,12.70
2019,07,04,01,39,12.70
2019,07,04,01,40,12.80
2019,07,04,01,41,12.80
2019,07,04,01,42,12.80
2019,07,04,01,43,13.00
2019,07,04,01,44,13.10
2019,07,04,01,45,13.00
2019,07,04,01,46,13.00
2019,07,04,01,47,13.00
2019,07,04,01,48,13.00
2019,07,04,01,49,12.90
2019,07,04,01,50,13.00
2019,07,04,01,51,13.10
2019,07,04,01,52,13.20
2019,07,04,01,53,13.20
2019,07,04,01,54,13.30
2019,07,04,01,55,13.30
2019,07,04,01,56,13.30
2019,07,04,01,57,13.20
2019,07,04,01,58,13.20
2019,07,04,01,59,13.10
2019,07,04,02,00,13.10
2019,07,04,02,01,13.20
2019,07,04,02,02,13.20
2019,07,04,02,03,13.10
2019,07,04,02,04,13.10
2019,07,04,02,05,13.10
2019,07,04,02,06,13.20
2019,07,04,02,07,13.20
2019,07,04,02,08,13.20
2019,07,04,02,09,13.20
2019,07,04,02,10,13.10
2019,07,04,02,11,13.00
2019,07,04,02,12,12.90
2019,07,04,02,13,12.90
2019,07,04,02,14,12.80
2019,07,04,02,15,12.80
2019,07,04,02,16,12.80
2019,07,04,02,17,12.80
2019,07,04,02,18,12.70
2019,07,04,02,19,12.80
2019,07,04,02,20,12.80
2019,07,04,02,21,12.80
2019,07,04,02,22,12.80
2019,07,04,02,23,12.70
2019,07,04,02,24,12.60
2019,07,04,02,25,12.60
2019,07,04,02,26,12.70
2019,07,04,02,27,12.70
2019,07,04,02,28,12.70
2019,07,04,02,29,12.70
2019,07,04,02,30,12.80
2019,07,04,02,31,12.80
2019,07,04,02,32,12.70
2019,07,04,02,33,12.60
2019,07,04,02,34,12.50
2019,07,04,02,35,12.50
2019,07,04,02,36,12.50
2019,07,04,02,37,12.40
2019,07,04,02,38,12.50
2019,07,04,02,39,12.60
2019,07,04,02,40,12.50
2019,07,04,02,41,12.50
2019,07,04,02,42,12.50
2019,07,04,02,43,12.40
2019,07,04,02,44,12.50
2019,07,04,02,45,12.50
2019,07,04,02,46,12.60
2019,07,04,02,47,12.60
2019,07,04,02,48,12.60
2019,07,04,02,49,12.60
2019,07,04,02,50,12.70
2019,07,04,02,51,12.70
2019,07,04,02,52,12.70
2019,07,04,02,53,12.70
2019,07,04,02,54,12.70
2019,07,04,02,55,12.70
2019,07,04,02,56,12.60
2019,07,04,02,57,12.60
2019,07,04,02,58,12.60
2019,07,04,02,59,12.60
2019,07,04,03,00,12.60
2019,07,04,03,01,12.60
2019,07,04,03,02,12.50
2019,07,04,03,03,12.50
2019,07,04,03,04,12.50
2019,07,04,03,05,12.50
2019,07,04,03,06,12.50
2019,07,04,03,07,12.40
2019,07,04,03,08,12.40
2019,07,04,03,09,12.40
2019,07,04,03,10,12.40
2019,07,04,03,11,12.50
2019,07,04,03,12,12.40
2019,07,04,03,13,12.40
2019,07,04,03,14,12.40
2019,07,04,03,15,12.40
2019,07,04,03,16,12.30
2019,07,04,03,17,12.40
2019,07,04,03,18,12.40
2019,07,04,03,19,12.40
2019,07,04,03,20,12.40
2019,07,04,03,21,12.40
2019,07,04,03,22,12.50
2019,07,04,03,23,12.40
2019,07,04,03,24,12.50
2019,07,04,03,25,12.50
2019,07,04,03,26,12.60
2019,07,04,03,27,12.60
2019,07,04,03,28,12.70
2019,07,04,03,29,12.70
2019,07,04,03,30,12.70
2019,07,04,03,31,12.80
2019,07,04,03,32,12.80
2019,07,04,03,33,12.70
2019,07,04,03,34,12.80
2019,07,04,03,35,12.80
2019,07,04,03,36,12.90
2019,07,04,03,37,12.80
2019,07,04,03,38,12.70
2019,07,04,03,39,12.70
2019,07,04,03,40,12.80
2019,07,04,03,41,13.00
2019,07,04,03,42,13.00
2019,07,04,03,43,13.00
2019,07,04,03,44,13.00
2019,07,04,03,45,13.00
2019,07,04,03,46,13.00
2019,07,04,03,47,12.90
2019,07,04,03,48,12.90
2019,07,04,03,49,12.80
2019,07,04,03,50,12.80
2019,07,04,03,51,12.80
2019,07,04,03,52,12.80
2019,07,04,03,53,12.80
2019,07,04,03,54,12.80
2019,07,04,03,55,12.80
2019,07,04,03,56,12.70
2019,07,04,03,57,12.70
2019,07,04,03,58,12.80
2019,07,04,03,59,12.90
2019,07,04,04,00,12.90
2019,07,04,04,01,13.00
2019,07,04,04,02,12.90
2019,07,04,04,03,12.90
2019,07,04,04,04,12.90
2019,07,04,04,05,12.90
2019,07,04,04,06,13.10
2019,07,04,04,07,13.20
2019,07,04,04,08,13.10
2019,07,04,04,09,13.10
2019,07,04,04,10,13.10
2019,07,04,04,11,13.10
2019,07,04,04,12,13.00
2019,07,04,04,13,13.10
2019,07,04,04,14,13.10
2019,07,04,04,15,13.20
2019,07,04,04,16,13.10
2019,07,04,04,17,13.00
2019,07,04,04,18,13.00
2019,07,04,04,19,13.10
2019,07,04,04,20,13.20
2019,07,04,04,21,13.20
2019,07,04,04,22,13.20
2019,07,04,04,23,13.20
2019,07,04,04,24,13.20
2019,07,04,04,25,13.20
2019,07,04,04,26,13.20
2019,07,04,04,27,13.10
2019,07,04,04,28,13.10
2019,07,04,04,29,13.10
2019,07,04,04,30,13.20
2019,07,04,04,31,13.20
2019,07,04,04,32,13.20
2019,07,04,04,33,13.20
2019,07,04,04,34,13.20
2019,07,04,04,35,13.10
2019,07,04,04,36,13.20
2019,07,04,04,37,13.10
2019,07,04,04,38,13.00
2019,07,04,04,39,13.00
2019,07,04,04,40,13.00
2019,07,04,04,41,13.00
2019,07,04,04,42,12.90
2019,07,04,04,43,12.80
2019,07,04,04,44,12.80
2019,07,04,04,45,12.80
2019,07,04,04,46,12.80
2019,07,04,04,47,12.80
2019,07,04,04,48,12.70
2019,07,04,04,49,12.70
2019,07,04,04,50,12.70
2019,07,04,04,51,12.70
2019,07,04,04,52,12.70
2019,07,04,04,53,12.60
2019,07,04,04,54,12.60
2019,07,04,04,55,12.60
2019,07,04,04,56,12.50
2019,07,04,04,57,12.50
2019,07,04,04,58,12.40
2019,07,04,04,59,12.20
2019,07,04,05,00,12.10
2019,07,04,05,01,12.10
2019,07,04,05,02,12.20
2019,07,04,05,03,12.20
2019,07,04,05,04,12.20
2019,07,04,05,05,12.20
2019,07,04,05,06,12.20
2019,07,04,05,07,12.20
2019,07,04,05,08,12.30
2019,07,04,05,09,12.30
2019,07,04,05,10,12.30
2019,07,04,05,11,12.40
2019,07,04,05,12,12.40
2019,07,04,05,13,12.40
2019,07,04,05,14,12.40
2019,07,04,05,15,12.40
2019,07,04,05,16,12.50
2019,07,04,05,17,12.50
2019,07,04,05,18,12.50
2019,07,04,05,19,12.40
2019,07,04,05,20,12.40
2019,07,04,05,21,12.40
2019,07,04,05,22,12.40
2019,07,04,05,23,12.40
2019,07,04,05,24,12.40
2019,07,04,05,25,12.40
2019,07,04,05,26,12.40
2019,07,04,05,27,12.40
2019,07,04,05,28,12.40
2019,07,04,05,29,12.40
2019,07,04,05,30,12.40
2019,07,04,05,31,12.30
2019,07,04,05,32,12.20
2019,07,04,05,33,12.10
2019,07,04,05,34,12.00
2019,07,04,05,35,11.90
2019,07,04,05,36,11.80
2019,07,04,05,37,11.70
2019,07,04,05,38,11.70
2019,07,04,05,39,11.70
2019,07,04,05,40,11.70
2019,07,04,05,41,11.80
2019,07,04,05,42,11.80
2019,07,04,05,43,11.80
2019,07,04,05,44,11.80
2019,07,04,05,45,11.80
2019,07,04,05,46,11.80
2019,07,04,05,47,11.80
2019,07,04,05,48,11.80
2019,07,04,05,49,11.70
2019,07,04,05,50,11.70
2019,07,04,05,51,11.70
2019,07,04,05,52,11.70
2019,07,04,05,53,11.70
2019,07,04,05,54,11.70
2019,07,04,05,55,11.70
2019,07,04,05,56,11.90
2019,07,04,05,57,11.90
2019,07,04,05,58,12.00
2019,07,04,05,59,12.00
2019,07,04,06,00,12.00
2019,07,04,06,01,12.00
2019,07,04,06,02,12.00
2019,07,04,06,03,12.00
2019,07,04,06,04,12.00
2019,07,04,06,05,12.00
2019,07,04,06,06,12.00
2019,07,04,06,07,11.90
2019,07,04,06,08,11.90
2019,07,04,06,09,11.90
2019,07,04,06,10,11.90
2019,07,04,06,11,11.90
2019,07,04,06,12,11.90
2019,07,04,06,13,11.90
2019,07,04,06,14,11.90
2019,07,04,06,15,11.90
2019,07,04,06,16,11.90
2019,07,04,06,17,11.90
2019,07,04,06,18,11.90
2019,07,04,06,19,11.80
2019,07,04,06,20,11.80
2019,07,04,06,21,11.80
2019,07,04,06,22,11.80
2019,07,04,06,23,11.80
2019,07,04,06,24,11.80
2019,07,04,06,25,11.80
2019,07,04,06,26,11.90
2019,07,04,06,27,11.90
2019,07,04,06,28,11.90
2019,07,04,06,29,11.90
2019,07,04,06,30,11.90
2019,07,04,06,31,11.90
2019,07,04,06,32,12.00
2019,07,04,06,33,12.00
2019,07,04,06,34,12.00
2019,07,04,06,35,12.10
2019,07,04,06,36,12.10
2019,07,04,06,37,12.00
2019,07,04,06,38,12.00
2019,07,04,06,39,11.90
2019,07,04,06,40,11.90
2019,07,04,06,41,11.90
2019,07,04,06,42,11.90
2019,07,04,06,43,11.90
2019,07,04,06,44,12.00
2019,07,04,06,45,12.00
2019,07,04,06,46,12.00
2019,07,04,06,47,12.00
2019,07,04,06,48,11.90
2019,07,04,06,49,12.00
2019,07,04,06,50,12.00
2019,07,04,06,51,12.00
2019,07,04,06,52,12.00
2019,07,04,06,53,12.00
2019,07,04,06,54,11.90
2019,07,04,06,55,12.00
2019,07,04,06,56,12.10
2019,07,04,06,57,12.10
2019,07,04,06,58,12.00
2019,07,04,06,59,12.00
2019,07,04,07,00,12.00
2019,07,04,07,01,12.00
2019,07,04,07,02,12.00
2019,07,04,07,03,12.10
2019,07,04,07,04,12.10
2019,07,04,07,05,12.00
2019,07,04,07,06,12.00
2019,07,04,07,07,12.00
2019,07,04,07,08,11.90
2019,07,04,07,09,11.80
2019,07,04,07,10,11.90
2019,07,04,07,11,11.90
2019,07,04,07,12,11.90
2019,07,04,07,13,11.90
2019,07,04,07,14,11.90
2019,07,04,07,15,11.90
2019,07,04,08,06,12.40
2019,07,04,08,07,12.40
2019,07,04,08,08,12.40
2019,07,04,08,09,12.40
2019,07,04,08,10,12.30
2019,07,04,08,11,12.40
2019,07,04,08,12,12.40
2019,07,04,08,13,12.40
2019,07,04,08,14,12.40
2019,07,04,08,15,12.40
2019,07,04,08,16,12.40
2019,07,04,08,17,12.40
2019,07,04,08,18,12.40
2019,07,04,08,19,12.40
2019,07,04,08,20,12.30
2019,07,04,08,21,12.30
2019,07,04,08,22,12.40
2019,07,04,08,23,12.40
2019,07,04,08,24,12.40
2019,07,04,08,25,12.40
2019,07,04,08,26,12.40
2019,07,04,08,27,12.40
2019,07,04,08,28,12.40
2019,07,04,08,29,12.30
2019,07,04,08,30,12.30
2019,07,04,08,31,12.30
2019,07,04,08,32,12.30
2019,07,04,08,33,12.40
2019,07,04,08,34,12.40
2019,07,04,08,35,12.40
2019,07,04,08,36,12.30
2019,07,04,08,37,12.10
2019,07,04,08,38,12.00
2019,07,04,08,39,12.00
2019,07,04,08,40,12.00
2019,07,04,08,41,12.00
2019,07,04,08,42,12.00
2019,07,04,08,43,12.00
2019,07,04,08,44,12.00
2019,07,04,08,45,12.00
2019,07,04,08,46,12.00
2019,07,04,08,47,12.20
2019,07,04,08,48,12.20
2019,07,04,08,49,12.20
2019,07,04,08,50,12.20
2019,07,04,08,51,12.20
2019,07,04,08,52,12.20
2019,07,04,08,53,12.20
2019,07,04,08,54,12.30
2019,07,04,08,55,12.30
2019,07,04,08,56,12.30
2019,07,04,08,57,12.30
2019,07,04,08,58,12.30
2019,07,04,08,59,12.30
2019,07,04,09,00,12.20
2019,07,04,09,01,12.20
2019,07,04,09,02,12.10
2019,07,04,09,03,12.10
2019,07,04,09,04,12.10
2019,07,04,09,05,12.10
2019,07,04,09,06,12.10
2019,07,04,09,07,12.20
2019,07,04,09,08,12.20
2019,07,04,09,09,12.20
2019,07,04,09,10,12.20
2019,07,04,09,11,12.20
2019,07,04,09,12,12.10
2019,07,04,09,13,12.00
2019,07,04,09,14,12.00
2019,07,04,09,15,12.10
2019,07,04,09,16,12.10
2019,07,04,09,17,12.10
2019,07,04,09,18,12.10
2019,07,04,09,19,12.20
2019,07,04,09,20,12.20
2019,07,04,09,21,12.20
2019,07,04,09,22,12.20
2019,07,04,09,23,12.30
2019,07,04,09,24,12.30
2019,07,04,09,25,12.30
2019,07,04,09,26,12.40
2019,07,04,09,27,12.40
2019,07,04,09,28,12.50
2019,07,04,09,29,12.60
2019,07,04,09,30,12.60
2019,07,04,09,31,12.60
2019,07,04,09,32,12.60
2019,07,04,09,33,12.70
2019,07,04,09,34,12.70
2019,07,04,09,35,12.70
2019,07,04,09,36,12.80
2019,07,04,09,37,12.80
2019,07,04,09,38,12.80
2019,07,04,09,39,12.80
2019,07,04,09,40,12.70
2019,07,04,09,41,12.70
2019,07,04,09,42,12.70
2019,07,04,09,43,12.70
2019,07,04,09,44,12.60
2019,07,04,09,45,12.50
2019,07,04,09,46,12.40
2019,07,04,09,47,12.30
2019,07,04,09,48,12.20
2019,07,04,09,49,12.20
2019,07,04,09,50,12.20
2019,07,04,09,51,12.20
2019,07,04,09,52,12.30
2019,07,04,09,53,12.30
2019,07,04,09,54,12.30
2019,07,04,09,55,12.30
2019,07,04,09,56,12.40
2019,07,04,09,57,12.40
2019,07,04,09,58,12.40
2019,07,04,09,59,12.40
2019,07,04,10,00,12.40
2019,07,04,10,01,12.40
2019,07,04,10,02,12.40
2019,07,04,10,03,12.40
2019,07,04,10,04,12.50
2019,07,04,10,05,12.50
2019,07,04,10,06,12.50
2019,07,04,10,07,12.40
2019,07,04,10,08,12.50
2019,07,04,10,09,12.50
2019,07,04,10,10,12.40
2019,07,04,10,11,12.30
2019,07,04,10,12,12.30
2019,07,04,10,13,12.40
2019,07,04,10,14,12.40
2019,07,04,10,15,12.40
2019,07,04,10,16,12.50
2019,07,04,10,17,12.50
2019,07,04,10,18,12.50
2019,07,04,10,19,12.50
2019,07,04,10,20,12.60
2019,07,04,10,21,12.60
2019,07,04,10,22,12.60
2019,07,04,10,23,12.70
2019,07,04,10,24,12.60
2019,07,04,10,25,12.60
2019,07,04,10,26,12.60
2019,07,04,10,27,12.60
2019,07,04,10,28,12.60
2019,07,04,10,29,12.60
2019,07,04,10,30,12.60
2019,07,04,10,31,12.60
2019,07,04,10,32,12.60
2019,07,04,10,33,12.60
2019,07,04,10,34,12.60
2019,07,04,10,35,12.60
2019,07,04,10,36,12.60
2019,07,04,10,37,12.60
2019,07,04,10,38,12.60
2019,07,04,10,39,12.60
2019,07,04,10,40,12.60
2019,07,04,10,41,12.60
2019,07,04,10,42,12.50
2019,07,04,10,43,12.50
2019,07,04,10,44,12.50
2019,07,04,10,45,12.50
2019,07,04,10,46,12.50
2019,07,04,10,47,12.50
2019,07,04,10,48,12.50
2019,07,04,10,49,12.60
2019,07,04,10,50,12.70
2019,07,04,10,51,12.80
2019,07,04,10,52,12.90
2019,07,04,10,53,12.90
2019,07,04,10,54,12.90
2019,07,04,10,55,12.90
2019,07,04,10,56,13.00
2019,07,04,10,57,13.10
2019,07,04,10,58,13.20
2019,07,04,10,59,13.20
2019,07,04,11,00,13.20
2019,07,04,11,01,13.20
2019,07,04,11,02,13.20
2019,07,04,11,03,13.10
2019,07,04,11,04,13.10
2019,07,04,11,05,13.10
2019,07,04,11,06,13.10
2019,07,04,11,07,13.20
2019,07,04,11,08,13.20
2019,07,04,11,09,13.20
2019,07,04,11,10,13.20
2019,07,04,11,11,13.10
2019,07,04,11,12,13.10
2019,07,04,11,13,12.90
2019,07,04,11,14,12.90
2019,07,04,11,15,12.90
2019,07,04,11,16,13.00
2019,07,04,11,17,13.10
2019,07,04,11,18,13.20
2019,07,04,11,19,13.10
2019,07,04,11,20,13.10
2019,07,04,11,21,13.10
2019,07,04,11,22,13.20
2019,07,04,11,23,13.20
2019,07,04,11,24,13.20
2019,07,04,11,25,13.20
2019,07,04,11,26,13.30
2019,07,04,11,27,13.20
2019,07,04,11,28,13.20
2019,07,04,11,29,13.10
2019,07,04,11,30,13.10
2019,07,04,11,31,13.10
2019,07,04,11,32,13.10
2019,07,04,11,33,13.10
2019,07,04,11,34,13.20
2019,07,04,11,35,13.20
2019,07,04,11,36,13.40
2019,07,04,11,37,13.50
2019,07,04,11,38,13.50
2019,07,04,11,39,13.20
2019,07,04,11,40,13.20
2019,07,04,11,41,13.30
2019,07,04,11,42,13.30
2019,07,04,11,43,13.50
2019,07,04,11,44,13.50
2019,07,04,11,45,13.50
2019,07,04,11,46,13.40
2019,07,04,11,47,13.40
2019,07,04,11,48,13.40
2019,07,04,11,49,13.50
2019,07,04,11,50,13.60
2019,07,04,11,51,13.60
2019,07,04,11,52,13.50
2019,07,04,11,53,13.40
2019,07,04,11,54,13.40
2019,07,04,11,55,13.40
2019,07,04,11,56,13.50
2019,07,04,11,57,13.50
2019,07,04,11,58,13.50
2019,07,04,11,59,13.60
2019,07,04,12,00,13.60
2019,07,04,12,01,13.60
2019,07,04,12,02,13.50
2019,07,04,12,03,13.40
2019,07,04,12,04,13.50
2019,07,04,12,05,13.70
2019,07,04,12,06,13.80
2019,07,04,12,07,13.80
2019,07,04,12,08,13.70
2019,07,04,12,09,13.30
2019,07,04,12,10,13.00
2019,07,04,12,11,12.80
2019,07,04,12,12,12.60
2019,07,04,12,13,12.40
2019,07,04,12,14,12.30
2019,07,04,12,15,12.30
2019,07,04,12,16,12.30
2019,07,04,12,17,12.40
2019,07,04,12,18,12.50
2019,07,04,12,19,12.50
2019,07,04,12,20,12.40
2019,07,04,12,21,12.40
2019,07,04,12,22,12.40
2019,07,04,12,23,12.40
2019,07,04,12,24,12.50
2019,07,04,12,25,12.60
2019,07,04,12,26,12.60
2019,07,04,12,27,12.70
2019,07,04,12,28,12.70
2019,07,04,12,29,12.60
2019,07,04,12,30,12.50
2019,07,04,12,31,12.40
2019,07,04,12,32,12.30
2019,07,04,12,33,12.20
2019,07,04,12,34,12.20
2019,07,04,12,35,12.10
2019,07,04,12,36,12.10
2019,07,04,12,37,12.20
2019,07,04,12,38,12.20
2019,07,04,12,39,12.10
2019,07,04,12,40,12.20
2019,07,04,12,41,12.30
2019,07,04,12,42,12.40
2019,07,04,12,43,12.30
2019,07,04,12,44,12.30
2019,07,04,12,45,12.30
2019,07,04,12,46,12.30
2019,07,04,12,47,12.30
2019,07,04,12,48,12.30
2019,07,04,12,49,12.20
2019,07,04,12,50,12.20
2019,07,04,12,51,12.20
2019,07,04,12,52,12.20
2019,07,04,12,53,12.10
2019,07,04,12,54,12.10
2019,07,04,12,55,12.10
2019,07,04,12,56,12.20
2019,07,04,12,57,12.20
2019,07,04,12,58,12.10
2019,07,04,12,59,12.10
2019,07,04,13,00,12.10
2019,07,04,13,01,12.10
2019,07,04,13,02,12.10
2019,07,04,13,03,12.10
2019,07,04,13,04,12.10
2019,07,04,13,05,12.10
2019,07,04,13,06,12.20
2019,07,04,13,07,12.20
2019,07,04,13,08,12.20
2019,07,04,13,09,12.20
2019,07,04,13,10,12.20
2019,07,04,13,11,12.10
2019,07,04,13,12,12.20
2019,07,04,13,13,12.20
2019,07,04,13,14,12.20
2019,07,04,13,15,12.20
2019,07,04,13,16,12.20
2019,07,04,13,17,12.20
2019,07,04,13,18,12.20
2019,07,04,13,19,12.20
2019,07,04,13,20,12.20
2019,07,04,13,21,12.20
2019,07,04,13,22,12.20
2019,07,04,13,23,12.20
2019,07,04,13,24,12.20
2019,07,04,13,25,12.20
2019,07,04,13,26,12.20
2019,07,04,13,27,12.20
2019,07,04,13,28,12.20
2019,07,04,13,29,12.20
2019,07,04,13,30,12.20
2019,07,04,13,31,12.20
2019,07,04,13,32,12.20
2019,07,04,13,33,12.20
2019,07,04,13,34,12.20
2019,07,04,13,35,12.20
2019,07,04,13,36,12.20
2019,07,04,13,37,12.20
2019,07,04,13,38,12.20
2019,07,04,13,39,12.20
2019,07,04,13,40,12.20
2019,07,04,13,41,12.30
2019,07,04,13,42,12.30
2019,07,04,13,43,12.30
2019,07,04,13,44,12.30
2019,07,04,13,45,12.30
2019,07,04,13,46,12.30
2019,07,04,13,47,12.30
2019,07,04,13,48,12.30
2019,07,04,13,49,12.30
2019,07,04,13,50,12.30
2019,07,04,13,51,12.30
2019,07,04,13,52,12.30
2019,07,04,13,53,12.30
2019,07,04,13,54,12.30
2019,07,04,13,55,12.30
2019,07,04,13,56,12.30
2019,07,04,13,57,12.30
2019,07,04,13,58,12.30
2019,07,04,13,59,12.30
2019,07,04,14,00,12.20
2019,07,04,14,01,12.30
2019,07,04,14,02,12.30
2019,07,04,14,03,12.30
2019,07,04,14,04,12.30
2019,07,04,14,05,12.30
2019,07,04,14,06,12.30
2019,07,04,14,07,12.30
2019,07,04,14,08,12.30
2019,07,04,14,09,12.30
2019,07,04,14,10,12.30
2019,07,04,14,11,12.30
2019,07,04,14,12,12.30
2019,07,04,14,13,12.40
2019,07,04,14,14,12.30
2019,07,04,14,15,12.30
2019,07,04,14,16,12.30
2019,07,04,14,17,12.40
2019,07,04,14,18,12.40
2019,07,04,14,19,12.40
2019,07,04,14,20,12.40
2019,07,04,14,21,12.30
2019,07,04,14,22,12.30
2019,07,04,14,23,12.40
2019,07,04,14,24,12.40
2019,07,04,14,25,12.40
2019,07,04,14,26,12.40
2019,07,04,14,27,12.40
2019,07,04,14,28,12.30
2019,07,04,14,29,12.40
2019,07,04,14,30,12.30
2019,07,04,14,31,12.30
2019,07,04,14,32,12.30
2019,07,04,14,33,12.30
2019,07,04,14,34,12.30
2019,07,04,14,35,12.30
2019,07,04,14,36,12.30
2019,07,04,14,37,12.40
2019,07,04,14,38,12.40
2019,07,04,14,39,12.50
2019,07,04,14,40,12.60
2019,07,04,14,41,12.60
2019,07,04,14,42,12.60
2019,07,04,14,43,12.60
2019,07,04,14,44,12.60
2019,07,04,14,45,12.60
2019,07,04,14,46,12.50
2019,07,04,14,47,12.60
2019,07,04,14,48,12.60
2019,07,04,14,49,12.60
2019,07,04,14,50,12.60
2019,07,04,14,51,12.60
2019,07,04,14,52,12.60
2019,07,04,14,53,12.50
2019,07,04,14,54,12.40
2019,07,04,14,55,12.40
2019,07,04,14,56,12.40
2019,07,04,14,57,12.40
2019,07,04,14,58,12.50
2019,07,04,14,59,12.70
2019,07,04,15,00,12.70
2019,07,04,15,01,12.70
2019,07,04,15,02,12.70
2019,07,04,15,03,12.70
2019,07,04,15,04,12.70
2019,07,04,15,05,12.70
2019,07,04,15,06,12.70
2019,07,04,15,07,12.70
2019,07,04,15,08,12.70
2019,07,04,15,09,12.70
2019,07,04,15,10,12.80
2019,07,04,15,11,12.90
2019,07,04,15,12,12.90
2019,07,04,15,13,12.80
2019,07,04,15,14,12.70
2019,07,04,15,15,12.80
2019,07,04,15,16,12.80
2019,07,04,15,17,12.80
2019,07,04,15,18,12.70
2019,07,04,15,19,12.70
2019,07,04,15,20,12.70
2019,07,04,15,21,12.70
2019,07,04,15,22,12.60
2019,07,04,15,23,12.60
2019,07,04,15,24,12.60
2019,07,04,15,25,12.60
2019,07,04,15,26,12.60
2019,07,04,15,27,12.60
2019,07,04,15,28,12.60
2019,07,04,15,29,12.70
2019,07,04,15,30,12.70
2019,07,04,15,31,12.80
2019,07,04,15,32,12.80
2019,07,04,15,33,12.80
2019,07,04,15,34,12.80
2019,07,04,15,35,12.80
2019,07,04,15,36,12.80
2019,07,04,15,37,12.70
2019,07,04,15,38,12.60
2019,07,04,15,39,12.60
2019,07,04,15,40,12.60
2019,07,04,15,41,12.60
2019,07,04,15,42,12.60
2019,07,04,15,43,12.70
2019,07,04,15,44,12.70
2019,07,04,15,45,12.70
2019,07,04,15,46,12.90
2019,07,04,15,47,13.00
2019,07,04,15,48,13.10
2019,07,04,15,49,13.10
2019,07,04,15,50,13.00
2019,07,04,15,51,12.80
2019,07,04,15,52,12.80
2019,07,04,15,53,13.00
2019,07,04,15,54,13.00
2019,07,04,15,55,13.00
2019,07,04,15,56,12.90
2019,07,04,15,57,12.90
2019,07,04,15,58,12.90
2019,07,04,15,59,12.90
2019,07,04,16,00,13.00
2019,07,04,16,01,13.10
2019,07,04,16,02,13.20
2019,07,04,16,03,13.30
2019,07,04,16,04,13.30
2019,07,04,16,05,13.30
2019,07,04,16,06,13.30
2019,07,04,16,07,13.40
2019,07,04,16,08,13.20
2019,07,04,16,09,13.30
2019,07,04,16,10,13.60
2019,07,04,16,11,13.60
2019,07,04,16,12,14.00
2019,07,04,16,13,14.30
2019,07,04,16,14,14.40
2019,07,04,16,15,14.40
2019,07,04,16,16,14.40
2019,07,04,16,17,14.50
2019,07,04,16,18,14.40
2019,07,04,16,19,14.10
2019,07,04,16,20,13.90
2019,07,04,16,21,14.30
2019,07,04,16,22,14.60
2019,07,04,16,23,14.90
2019,07,04,16,24,15.00
2019,07,04,16,25,14.40
2019,07,04,16,26,14.50
2019,07,04,16,27,14.70
2019,07,04,16,28,14.90
2019,07,04,16,29,14.90
2019,07,04,16,30,15.00
2019,07,04,16,31,15.20
2019,07,04,16,32,15.40
2019,07,04,16,33,15.40
2019,07,04,16,34,15.20
2019,07,04,16,35,15.20
2019,07,04,16,36,15.40
2019,07,04,16,37,15.60
2019,07,04,16,38,15.80
2019,07,04,16,39,15.60
2019,07,04,16,40,15.30
2019,07,04,16,41,15.00
2019,07,04,16,42,15.00
2019,07,04,16,43,15.00
2019,07,04,16,44,15.10
2019,07,04,16,45,15.10
2019,07,04,16,46,15.10
2019,07,04,16,47,15.20
2019,07,04,16,48,15.30
2019,07,04,16,49,15.50
2019,07,04,16,50,15.80
2019,07,04,16,51,16.10
2019,07,04,16,52,16.10
2019,07,04,16,53,16.00
2019,07,04,16,54,16.10
2019,07,04,16,55,16.10
2019,07,04,16,56,16.20
2019,07,04,16,57,16.40
2019,07,04,16,58,16.40
2019,07,04,16,59,16.70
2019,07,04,17,00,16.80
2019,07,04,17,01,16.90
2019,07,04,17,02,16.90
2019,07,04,17,03,16.70
2019,07,04,17,04,16.70
2019,07,04,17,05,16.70
2019,07,04,17,06,16.70
2019,07,04,17,07,16.80
2019,07,04,17,08,16.70
2019,07,04,17,09,16.60
2019,07,04,17,10,16.70
2019,07,04,17,11,16.70
2019,07,04,17,12,16.50
2019,07,04,17,13,16.30
2019,07,04,17,14,16.30
2019,07,04,17,15,16.30
2019,07,04,17,16,16.40
2019,07,04,17,17,16.40
2019,07,04,17,18,16.30
2019,07,04,17,19,16.20
2019,07,04,17,20,16.10
2019,07,04,17,21,16.10
2019,07,04,17,22,16.10
2019,07,04,17,23,16.10
2019,07,04,17,24,16.10
2019,07,04,17,25,16.10
2019,07,04,17,26,15.90
2019,07,04,17,27,16.00
2019,07,04,17,28,16.00
2019,07,04,17,29,16.20
2019,07,04,17,30,16.30
2019,07,04,17,31,16.40
2019,07,04,17,32,16.30
2019,07,04,17,33,16.30
2019,07,04,17,34,16.30
2019,07,04,17,35,16.20
2019,07,04,17,36,16.40
2019,07,04,17,37,16.60
2019,07,04,17,38,16.60
2019,07,04,17,39,16.70
2019,07,04,17,40,16.70
2019,07,04,17,41,16.80
2019,07,04,17,42,16.50
2019,07,04,17,43,16.30
2019,07,04,17,44,16.30
2019,07,04,17,45,16.20
2019,07,04,17,46,16.30
2019,07,04,17,47,16.20
2019,07,04,17,48,16.10
2019,07,04,17,49,16.10
2019,07,04,17,50,16.10
2019,07,04,17,51,16.10
2019,07,04,17,52,16.10
2019,07,04,17,53,16.20
2019,07,04,17,54,16.30
2019,07,04,17,55,16.40
2019,07,04,17,56,16.50
2019,07,04,17,57,16.50
2019,07,04,17,58,16.40
2019,07,04,17,59,16.40
2019,07,04,18,00,16.30
2019,07,04,18,01,16.20
2019,07,04,18,02,16.30
2019,07,04,18,03,16.40
2019,07,04,18,04,16.40
2019,07,04,18,05,16.30
2019,07,04,18,06,16.30
2019,07,04,18,07,16.40
2019,07,04,18,08,16.40
2019,07,04,18,09,16.50